COSMOS 2251 DEB, 37095

Orbit data source: Space-Track

COSMOS 2251 DEB, 37095 is space debris in LEO originally from a launch on Wed, 16 Jun 1993 UTC launched from the Plesetsk Missile And Space Complex (PKMTR). The debris from Iridium 33, an American commercial communications satellite, has been tracked extensively since its accidental collision with the defunct Russian satellite Cosmos 2251 in 2009. This event, occurring at high speed in low Earth orbit (LEO), generated thousands of pieces of space debris, significantly increasing the risk of further collisions. The Iridium 33 debris cloud has impacted space traffic management and orbital debris mitigation strategies, making it a subject of ongoing study in space situational awareness.

Loading next visibility...
Identifier
37095, 1993-036BFR
Orbit
LEO
Country
Flag of CISCIS
Related business
Manufacturer
Unknown
Mission
Spacecraft
Bus & Motor
Unknown
Mass
Unknown
Launch date (UTC)
1993-06-16 (33 years ago)
Launch vehicle
Unknown
Launch site
Plesetsk Missile And Space Complex (PKMTR)
Object type
Payload
Rocket body
Debris
Shape & HBR
Unknown shape, 0.1 m
Radar Cross Section
Small (<0.1 m²)

Expand to show TLE details & history
Last TLE update: 2 days ago

TLE from 2 days ago
0 COSMOS 2251 DEB
1 37095U 93036BFR 26032.43531381  .00001964  00000-0  10757-2 0  9998
2 37095  73.8495 100.5993 0190852 150.3446 210.8676 14.03708325633473
Epoch: 2026-02-01T10:26Z
TLE epoch observation values (Epoch: 2026-02-01T10:26:51.113Z)
Latitude
-0.00001°
Longitude
172.24133°
Altitude
1,003.163 km
Speed
7.29 km/s
True Right ascension
06h 42m 23s
True Declination
0° 00' 00"
Sunlit
Object was in full shadow at epoch
Visualization orbit readout
Latitude
Unknown
Longitude
Unknown
Altitude
Unknown
Speed
Unknown
Apparent Right ascension
Unknown
Apparent Declination
Unknown
Sunlit
N/A
Visualization observer readout
Local Sidereal Time
04:15:58
Azimuth
Unknown
Elevation
Unknown
Doppler factor
Unknown
Orbital elements
Apogee altitude
1,017.154 km
Perigee altitude
740.159 km
Semi-major axis
7,256.793 km
Eccentricity
0.01909
Inclination
73.8495°
RAAN
100.5993°
Arg. of periapsis
150.3446°
True anomaly
209.76815°
Mean anomaly
210.8676°
Eccentric anomaly
210.31564°
Mean motion
3.51096 °/min
Orbital period
102.54 mins
BSTAR
0.0010757
Loading maneuver chart data...
Computing Atmospheric mass density...

Documentation

Showing up to 5 results
|